Regional Weather Roundup
Issued by NWS

Home | Current Version | Previous Version | Graphics & Text | Print | Product List | Glossary On
Versions: 1 2 3 4 5 6 7 8 9 10 11 12 13 14 15 16 17 18 19 20 21 22 23 24 25 26 27 28 29 30 31 32 33 34 35 36 37 38 39 40 41 42 43 44 45 46 47 48 49 50
000
ASUS45 KTFX 301710
RWRMT
MONTANA REGIONAL WEATHER ROUNDUP
NATIONAL WEATHER SERVICE GREAT FALLS MT
1100 AM MDT TUE JUN 30 2015

NOTE: "FAIR" INDICATES FEW OR NO CLOUDS BELOW 12000 FEET WITH NO
SIGNIFICANT WEATHER AND/OR OBSTRUCTIONS TO VISIBILITY.

MTZ001>007-043-301800-
WEST OF THE DIVIDE

CITY           SKY/WX    TMP DP  RH WIND       PRES   REMARKS
KALISPELL      SUNNY     81  51  35 S5        30.03S
MISSOULA       SUNNY     78  60  53 CALM      30.07F
BUTTE          SUNNY     76  52  43 NE5       30.20F
MULLAN PASS    SUNNY     68  53  58 NW8       30.24R
EUREKA           N/A     66  59  77 CALM      30.09S
HAMILTON         N/A     82  59  44 S7        30.08F
PLAINS           N/A     82  60  47 S1        30.02F
RONAN            N/A     85  59  41 CALM      30.08S
$$

MTZ008-052>055-301800-
SOUTHWEST MONTANA

CITY           SKY/WX    TMP DP  RH WIND       PRES   REMARKS
BOZEMAN        MOSUNNY   80  57  45 VRB3      30.13F
DILLON         SUNNY     77  52  41 CALM      30.17F
W YELLOWSTONE  MOSUNNY   75  48  38 S3        30.27F
TWIN BRIDGES     N/A     77  56  48 SE7       30.13F
$$

MTZ009-010-012-014-046-048-049-054-301800-
EAST SLOPES AND CENTRAL MONTANA

CITY           SKY/WX    TMP DP  RH WIND       PRES   REMARKS
CUT BANK       SUNNY     82  43  25 NW20      30.00R
GREAT FALLS    MOSUNNY   85  51  31 W18G26    29.99F
MALMSTROM AFB  MOSUNNY   86  48  26 NW15G25   29.98F
HELENA         SUNNY     83  60  45 VRB7      30.06F
CONRAD           N/A     84  46  26 SW24      30.02S
$$

MTZ011-013-016-021-045-047-050-051-301800-
NORTH CENTRAL MONTANA

CITY           SKY/WX    TMP DP  RH WIND       PRES   REMARKS
HAVRE          SUNNY     87  54  32 NW16G23   29.87F
LEWISTOWN      SUNNY     87  46  24 NW25G31   30.01
CHINOOK          N/A     84  52  32 W16G22    29.87S
FORT BENTON      N/A     90  46  22 SW22G31   29.92S
$$

MTZ017>020-022>027-061-062-301800-
NORTHEAST MONTANA

CITY           SKY/WX    TMP DP  RH WIND       PRES   REMARKS
JORDAN           N/A     86  57  37 NW16G23   29.87F
SIDNEY         MOSUNNY   81  63  54 E15       29.88F
WOLF POINT     MOSUNNY   85  61  44 SE12      29.86F HAZE
MALTA            N/A     85  56  37 SW12      29.83F
PLENTYWOOD       N/A     66  57  72 NE10      29.95R
POPLAR           N/A     81  59  47 E15         N/A
SCOBEY           N/A     69  54  58 NE14      29.92F
$$

MTZ028>42-056>058-301800-
SOUTHCENTRAL AND SOUTHEAST MONTANA

CITY           SKY/WX    TMP DP  RH WIND       PRES   REMARKS
BAKER          CLOUDY    73  64  73 SE13      29.92F
BILLINGS       PTSUNNY   80  60  50 SW8       30.01S
LIVINGSTON     MOSUNNY   84  55  36 W21G28    30.09F
MILES CITY     PTSUNNY   82  60  47 NW5       29.88F HAZE
EKALAKA          N/A     82  58  43 W7        29.93S
FORSYTH          N/A     82  57  42 W10       29.91R
LAUREL           N/A     85  57  38 S2        29.99F
ROUNDUP          N/A     88  55  32 SW1       29.89F
$$

REGIONAL REPORTS...DAKOTAS

CITY           SKY/WX    TMP DP  RH WIND       PRES   REMARKS
WILLISTON      CLOUDY    80  53  39 E13       29.91F
MINOT          CLOUDY    67  63  87 SE3       29.93F FOG
DICKINSON      CLOUDY    70  63  78 E9        29.93S
BEACH          FAIR      72  66  83 SE17G23   29.91F
CROSBY         PTSUNNY   64  64 100 NE7       29.96R FOG
BISMARCK       CLOUDY    68  65  90 E8        29.94F
GRAND FORKS    CLOUDY    71  57  61 CALM      29.95S
FARGO          PTSUNNY   73  56  54 SE7       29.94F
BUFFALO SD       N/A     79  64  60 SE10      29.86S
RAPID CITY     CLOUDY    77  64  64 SW3       29.94S
$$

REGIONAL REPORTS...WYOMING/IDAHO/WASHINGTON

CITY           SKY/WX    TMP DP  RH WIND       PRES   REMARKS
GILLETTE       PTSUNNY   82  59  45 NW12G18   30.03S
SHERIDAN       CLOUDY    75  61  61 NW3       30.04S
BUFFALO WY     CLOUDY    72  56  57 N6        30.11R
CODY           PTSUNNY   79  55  44 N5        30.12F
YELLOWSTONE LA   N/A     67  50  54 VRB3      30.38F
IDAHO FALLS    PTSUNNY   77  59  53 N3        30.15F
SALMON         SUNNY     75  61  60 CALM      30.11F
BOISE          SUNNY     86  57  37 W6        30.02S
SPOKANE        SUNNY     82  53  36 VRB6      30.05S
$$

REGIONAL REPORTS...ALBERTA

CITY           SKY/WX    TMP DP  RH WIND       PRES   REMARKS
EDMONTON       CLOUDY    61  55  82 SE5       30.01S
CALGARY        MOSUNNY   68  57  68 N18G28    30.03R
LETHBRIDGE     MOSUNNY   77  55  47 W17G24    29.97S
MEDICINE HAT   PTSUNNY   77  63  61 W16       29.88S SMOKE
MILK RIVER       N/A     81  50  34 NW20G28     N/A
ONEFOUR          N/A     79  52  38 NW25G35     N/A
$$

REGIONAL REPORTS...SASKATCHEWAN

CITY           SKY/WX    TMP DP  RH WIND       PRES   REMARKS
SWIFT CURRENT  MOSUNNY   70  55  60 E22G28    29.89F HAZE
REGINA         LGT RAIN  63  61  94 VRB2      29.96R VSB 5/8
SASKATOON        N/A     68  55  64 W8        29.97R SMOKE
CYPRESS HILLS    N/A     68  46  45 SW6         N/A
VAL MARIE        N/A     79  52  38 SE10        N/A
ASSINIBOIA       N/A    N/A N/A N/A N5          N/A
$$



USA.gov is the U.S. government's official web portal to all federal, state and local government web resources and services.